Find Starlink 31668

NORAD ID: 59580 Int'l Des: 2024-076 Owner: SPXS Country: US Constellation: starlink operational
LEOCIRCULAR

当前视图

正在加载3D地球...

About Starlink 31668

Starlink 31668 (NORAD 59580) is a starlink constellation satellite (v2 mini) launched Apr 23, 2024 by SPXS of US. It operates in LEO, CIRCULAR orbit with a mass of 730.00 kg.

即将过境

Passes for default location (London). Set your location on the main map for personalized predictions.

高度历史

Loading altitude history...

两行轨道根数

1 59580U 24076S 26236.96569075 -.00000898 00000-0 -23127-4 0 9998
2 59580 43.0017 138.2055 0001030 281.1019 78.9717 15.27572653132248
Epoch: Aug 24, 2026 • Age: 27 hours

当前状态

高度 484.4 km
远地点 / 近地点 N/A
速度 7.63 km/s
星下点 30.80°N, 98.46°W
发射日期 Apr 23, 2024
运行时间 2.3 years
类型 internet

技术详情

分类 Payload
质量 730.00 kg
干质量 700.00 kg
总质量 730.00 kg
长度 0.30 m
直径 4.10 m
跨度 29.00 m
形状 Box + pan
制造商 SPXS
平台类型 Starlink V2M
阶段状态 In Orbit
所有者/国家 SPXS/US

Most Searched